Previsão horária em Alipino

Hoje, 28 Janeiro, Quinta-feira

Tempo Temperatura Precipitação Vento Pressão Humidade
00:00 -1°C° 0 mm 1 m/s 742 mmHg 96%
01:00 -1°C° 0 mm 1 m/s 742 mmHg 96%
02:00 -1°C° 0 mm 1 m/s 742 mmHg 98%
03:00 -1°C° 0.1 mm 1 m/s 742 mmHg 98%
04:00 -1°C° 0.1 mm 1 m/s 742 mmHg 97%
05:00 -2°C° 0.1 mm 0 m/s 743 mmHg 97%
06:00 -2°C° 0 mm 0 m/s 743 mmHg 97%
07:00 -2°C° 0 mm 0 m/s 742 mmHg 97%
08:00 -2°C° 0 mm 0 m/s 742 mmHg 97%
09:00 -2°C° 0 mm 0 m/s 742 mmHg 95%
10:00 -1°C° 0 mm 0 m/s 742 mmHg 93%
11:00 -1°C° 0 mm 0 m/s 742 mmHg 91%
12:00 -1°C° 0 mm 0 m/s 742 mmHg 91%
13:00 0°C° 0 mm 0 m/s 742 mmHg 90%
14:00 0°C° 0 mm 0 m/s 742 mmHg 89%
15:00 0°C° 0 mm 1 m/s 741 mmHg 91%
16:00 0°C° 0 mm 1 m/s 741 mmHg 94%
17:00 -1°C° 0 mm 1 m/s 741 mmHg 96%
18:00 -1°C° 0.1 mm 1 m/s 741 mmHg 96%
19:00 -1°C° 0.1 mm 1 m/s 740 mmHg 97%
20:00 -1°C° 0.1 mm 1 m/s 740 mmHg 97%
21:00 -1°C° 0.1 mm 1 m/s 739 mmHg 97%
22:00 -1°C° 0.1 mm 1 m/s 739 mmHg 97%
23:00 -1°C° 0.1 mm 1 m/s 739 mmHg 97%

Amanhã, 29 Janeiro, Sexta-feira

Tempo Temperatura Precipitação Vento Pressão Humidade
00:00 -1°C° 0.1 mm 1 m/s 738 mmHg 97%
01:00 -2°C° 0.1 mm 1 m/s 738 mmHg 97%
02:00 -2°C° 0.1 mm 1 m/s 737 mmHg 97%
03:00 -2°C° 0.1 mm 1 m/s 737 mmHg 96%
04:00 -2°C° 0.1 mm 1 m/s 736 mmHg 96%
05:00 -4°C° 0.1 mm 2 m/s 735 mmHg 96%
06:00 -4°C° 0.3 mm 2 m/s 734 mmHg 96%
07:00 -4°C° 0.3 mm 2 m/s 733 mmHg 95%
08:00 -4°C° 0.3 mm 2 m/s 733 mmHg 95%
09:00 -5°C° 0.4 mm 3 m/s 732 mmHg 95%
10:00 -4°C° 0.4 mm 3 m/s 731 mmHg 94%
11:00 -4°C° 0.4 mm 3 m/s 731 mmHg 94%
12:00 -4°C° 0.5 mm 3 m/s 730 mmHg 94%
13:00 -4°C° 0.5 mm 3 m/s 730 mmHg 93%
14:00 -3°C° 0.5 mm 2 m/s 729 mmHg 93%
15:00 -3°C° 0.1 mm 2 m/s 729 mmHg 94%
16:00 -4°C° 0.1 mm 2 m/s 729 mmHg 96%
17:00 -2°C° 0.1 mm 1 m/s 729 mmHg 97%
18:00 -2°C° 0.1 mm 1 m/s 729 mmHg 97%
19:00 -2°C° 0.1 mm 1 m/s 729 mmHg 97%
20:00 -3°C° 0.1 mm 1 m/s 728 mmHg 97%
21:00 -3°C° 0.1 mm 1 m/s 729 mmHg 97%
22:00 -3°C° 0.1 mm 1 m/s 729 mmHg 97%
23:00 -4°C° 0.1 mm 1 m/s 729 mmHg 97%

Depois de amanhã, 30 Janeiro, Sábado

Tempo Temperatura Precipitação Vento Pressão Humidade
00:00 -6°C° 0.1 mm 2 m/s 729 mmHg 96%
01:00 -6°C° 0.1 mm 2 m/s 729 mmHg 96%
02:00 -6°C° 0.1 mm 2 m/s 729 mmHg 96%
03:00 -6°C° 0.1 mm 2 m/s 729 mmHg 96%
04:00 -6°C° 0.1 mm 2 m/s 729 mmHg 95%
05:00 -6°C° 0.1 mm 2 m/s 729 mmHg 95%
06:00 -6°C° 0.1 mm 3 m/s 729 mmHg 95%
07:00 -6°C° 0.1 mm 3 m/s 729 mmHg 94%
08:00 -6°C° 0.1 mm 3 m/s 729 mmHg 94%
09:00 -6°C° 0.2 mm 3 m/s 729 mmHg 93%
10:00 -6°C° 0.2 mm 3 m/s 729 mmHg 92%
11:00 -5°C° 0.2 mm 3 m/s 729 mmHg 91%
12:00 -5°C° 0.2 mm 3 m/s 730 mmHg 91%
13:00 -5°C° 0.2 mm 4 m/s 730 mmHg 90%
14:00 -5°C° 0.2 mm 4 m/s 730 mmHg 90%
15:00 -5°C° 0.2 mm 4 m/s 730 mmHg 91%
16:00 -5°C° 0.2 mm 3 m/s 730 mmHg 92%
17:00 -6°C° 0.2 mm 3 m/s 730 mmHg 94%
18:00 -6°C° 0.2 mm 3 m/s 730 mmHg 93%
19:00 -6°C° 0.2 mm 3 m/s 730 mmHg 93%
20:00 -6°C° 0.2 mm 3 m/s 730 mmHg 93%
21:00 -6°C° 0.1 mm 3 m/s 730 mmHg 93%
22:00 -6°C° 0.1 mm 3 m/s 730 mmHg 93%
23:00 -6°C° 0.1 mm 3 m/s 730 mmHg 93%

31 Janeiro, Domingo

Tempo Temperatura Precipitação Vento Pressão Humidade
00:00 -7°C° 0.1 mm 3 m/s 731 mmHg 94%
01:00 -7°C° 0.1 mm 3 m/s 731 mmHg 94%
02:00 -7°C° 0.1 mm 3 m/s 731 mmHg 94%
03:00 -6°C° 0.1 mm 2 m/s 731 mmHg 95%
04:00 -6°C° 0.1 mm 2 m/s 731 mmHg 95%
05:00 -7°C° 0.1 mm 2 m/s 731 mmHg 95%
06:00 -7°C° 0 mm 2 m/s 731 mmHg 95%
07:00 -7°C° 0 mm 2 m/s 731 mmHg 95%
08:00 -7°C° 0 mm 2 m/s 731 mmHg 96%
09:00 -7°C° 0 mm 2 m/s 732 mmHg 94%
10:00 -6°C° 0 mm 2 m/s 732 mmHg 92%
11:00 -7°C° 0 mm 3 m/s 732 mmHg 90%
12:00 -6°C° 0.1 mm 3 m/s 733 mmHg 90%
13:00 -6°C° 0.1 mm 3 m/s 733 mmHg 90%
14:00 -6°C° 0.1 mm 3 m/s 733 mmHg 90%
15:00 -6°C° 0.1 mm 3 m/s 734 mmHg 90%
16:00 -6°C° 0.1 mm 3 m/s 734 mmHg 91%
17:00 -6°C° 0.1 mm 3 m/s 735 mmHg 92%
18:00 -7°C° 0.1 mm 4 m/s 735 mmHg 91%
19:00 -7°C° 0.1 mm 4 m/s 735 mmHg 90%
20:00 -8°C° 0.1 mm 4 m/s 736 mmHg 90%
21:00 -8°C° 0 mm 4 m/s 736 mmHg 90%
22:00 -9°C° 0 mm 4 m/s 737 mmHg 91%
23:00 -9°C° 0 mm 4 m/s 737 mmHg 92%

1 Fevereiro, Segunda-feira

Tempo Temperatura Precipitação Vento Pressão Humidade
00:00 -9°C° 0 mm 4 m/s 737 mmHg 92%
01:00 -9°C° 0 mm 4 m/s 738 mmHg 92%
02:00 -8°C° 0 mm 3 m/s 738 mmHg 92%
03:00 -7°C° 0 mm 3 m/s 738 mmHg 93%
04:00 -7°C° 0 mm 3 m/s 738 mmHg 94%
05:00 -7°C° 0 mm 3 m/s 738 mmHg 95%
06:00 -7°C° 0.1 mm 3 m/s 739 mmHg 95%
07:00 -7°C° 0.1 mm 3 m/s 739 mmHg 94%
08:00 -7°C° 0.1 mm 3 m/s 739 mmHg 94%
09:00 -7°C° 0.1 mm 3 m/s 740 mmHg 93%
10:00 -7°C° 0.1 mm 3 m/s 740 mmHg 92%
11:00 -7°C° 0.1 mm 3 m/s 741 mmHg 90%
12:00 -7°C° 0 mm 3 m/s 741 mmHg 90%
13:00 -6°C° 0 mm 2 m/s 741 mmHg 89%
14:00 -6°C° 0 mm 2 m/s 741 mmHg 89%
15:00 -6°C° 0 mm 2 m/s 742 mmHg 90%
16:00 -7°C° 0 mm 2 m/s 742 mmHg 92%
17:00 -7°C° 0 mm 1 m/s 742 mmHg 94%
18:00 -7°C° 0 mm 1 m/s 742 mmHg 94%
19:00 -7°C° 0 mm 1 m/s 742 mmHg 94%
20:00 -7°C° 0 mm 1 m/s 742 mmHg 94%
21:00 -8°C° 0 mm 1 m/s 743 mmHg 95%
22:00 -8°C° 0 mm 1 m/s 743 mmHg 95%
23:00 -9°C° 0 mm 1 m/s 743 mmHg 96%

2 Fevereiro, Terça-feira

Tempo Temperatura Precipitação Vento Pressão Humidade
00:00 -9°C° 0 mm 1 m/s 743 mmHg 96%
01:00 -10°C° 0 mm 1 m/s 743 mmHg 96%
02:00 -10°C° 0 mm 1 m/s 743 mmHg 96%
03:00 -10°C° 0 mm 1 m/s 743 mmHg 97%
04:00 -10°C° 0 mm 1 m/s 744 mmHg 97%
05:00 -11°C° 0 mm 1 m/s 744 mmHg 97%
06:00 -11°C° 0 mm 1 m/s 744 mmHg 97%
07:00 -11°C° 0 mm 1 m/s 744 mmHg 96%
08:00 -13°C° 0 mm 2 m/s 744 mmHg 96%
09:00 -12°C° 0 mm 2 m/s 745 mmHg 94%
10:00 -10°C° 0 mm 2 m/s 745 mmHg 93%
11:00 -10°C° 0 mm 3 m/s 745 mmHg 91%
12:00 -9°C° 0 mm 3 m/s 745 mmHg 90%
13:00 -9°C° 0 mm 3 m/s 746 mmHg 90%
14:00 -8°C° 0 mm 3 m/s 746 mmHg 90%
15:00 -8°C° 0 mm 3 m/s 746 mmHg 91%
16:00 -9°C° 0 mm 3 m/s 746 mmHg 93%
17:00 -9°C° 0 mm 3 m/s 746 mmHg 95%
18:00 -9°C° 0 mm 3 m/s 746 mmHg 94%
19:00 -9°C° 0 mm 4 m/s 746 mmHg 93%
20:00 -9°C° 0 mm 4 m/s 746 mmHg 93%
21:00 -9°C° 0.1 mm 4 m/s 746 mmHg 93%
22:00 -9°C° 0.1 mm 4 m/s 747 mmHg 93%
23:00 -9°C° 0.1 mm 4 m/s 747 mmHg 93%
Mostrar mais

Necessitamos do seu Consentimento

A Meteoprog e os seus Fornecedores de Serviços podem armazenar e aceder a dados pessoais como cookies, identificadores do dispositivo ou outras tecnologias semelhantes existentes no seu dispositivo e processar estes dados para personalizar conteúdos e anúncios, assim como funcionalidades nas redes sociais e análise de tráfego.

  • Armazenar e/ou aceder a informações no seu dispositivo

    Os cookies, identificadores do dispositivo ou outras informações podem ser armazenados ou acedidos no seu dispositivo, para os fins acima indicados.

  • Anúncios e conteúdos personalizados, medição de anúncios e conteúdos, dados sobre o público-alvo e desenvolvimento de produtos

    Os anúncios e os conteúdos podem ser personalizados com base num perfil. Podem ser adicionados dados adicionais para uma maior personalização dos anúncios e dos conteúdos. A eficácia dos anúncios e dos conteúdos pode ser medida. Podem ser obtidas informações sobre o público que visualizou os anúncios e os conteúdos. Estes dados podem ser usados para desenvolver ou melhorar sistemas, softwares ou a experiência do utilizador.

Ao clicar em "Eu concordo”, permitirá o uso de cookies, identificadores do dispositivo e web beacons mencionados ou outras tecnologias semelhantes. As configurações do navegador do seu dispositivo podem ser alteradas.

Para certos fins, podem ser invocados interesses legítimos ao invés de consentimento. Pode ler mais informação sobre este assunto na nossa Política de Privacidade e Cookies.